This is the latest recevied weather packets stored in our database for station/object F4FEB-14. If no packets are shown the sender has not sent any weather packets the latest 1 day(s).
| Time | Temp. | Humidity | Pressure | Rain* | Wind** | Luminosity | Snow |
|---|---|---|---|---|---|---|---|
| 1836274736 | 14.44° C | 100% | 1022.7 hPa | 0 mm | 0 m/s | - | - |
| 1836274435 | 14.44° C | 100% | 1022.6 hPa | 0 mm | 0 m/s | - | - |
| 1836274287 | 14.44° C | 100% | 1022.5 hPa | 0 mm | 0 m/s | - | - |
| 1836274135 | 14.44° C | 100% | 1022.5 hPa | 0 mm | 0.45 m/s, 231° | - | - |
| 1778033908 | 9.44° C | 100% | 1009.8 hPa | 0 mm | 0.45 m/s, 262° | - | - |
| 1778033608 | 9.44° C | 100% | 1009.9 hPa | 0 mm | 0.89 m/s, 178° | - | - |
| 1778033306 | 9.44° C | 100% | 1009.9 hPa | 0 mm | 0.45 m/s, 164° | - | - |
| 1778033006 | 9.44° C | 100% | 1009.9 hPa | 0 mm | 0 m/s | - | - |
| 1778032703 | 9.44° C | 100% | 1010 hPa | 0 mm | 0 m/s | - | - |
| 1778032099 | 9.44° C | 100% | 1010.1 hPa | 0 mm | 0.45 m/s, 165° | - | - |
| 1778031797 | 9.44° C | 100% | 1010.2 hPa | 0 mm | 0 m/s | - | - |
| 1778031497 | 9.44° C | 100% | 1010.2 hPa | 0 mm | 0 m/s | - | - |
| 1778031196 | 9.44° C | 100% | 1010.2 hPa | 0 mm | 0.45 m/s, 174° | - | - |
| 1778030895 | 9.44° C | 100% | 1010.3 hPa | 0 mm | 0 m/s | - | - |
| 1778030593 | 9.44° C | 100% | 1010.3 hPa | 0 mm | 0.45 m/s, 170° | - | - |
| 1778030292 | 9.44° C | 100% | 1010.3 hPa | 0 mm | 0 m/s | - | - |
| 1778029992 | 9.44° C | 100% | 1010.4 hPa | 0 mm | 0 m/s | - | - |
| 1778029691 | 9.44° C | 100% | 1010.6 hPa | 0 mm | 0 m/s | - | - |
| 1778029389 | 9.44° C | 100% | 1010.6 hPa | 0 mm | 0.45 m/s, 206° | - | - |
| 1778029086 | 9.44° C | 100% | 1010.6 hPa | 0 mm | 0.89 m/s, 163° | - | - |
| 1778028482 | 10° C | 100% | 1010.8 hPa | 0 mm | 1.34 m/s, 175° | - | - |
| 1778028181 | 10° C | 100% | 1010.8 hPa | 0 mm | 1.34 m/s, 175° | - | - |
| 1778027880 | 10° C | 100% | 1010.9 hPa | 0 mm | 1.34 m/s, 211° | - | - |
| 1778027277 | 10° C | 100% | 1010.9 hPa | 0 mm | 1.79 m/s, 165° | - | - |
| 1778026977 | 10° C | 100% | 1010.9 hPa | 0 mm | 1.34 m/s, 167° | - | - |
* Rain latest hour (hover to see other rain measurements)
** Current wind speed in m/s (hover to see current wind gust speed)